Home   Weather   Coburg   Past weeks

Flag for Germany Past Weather in Coburg, Bavaria, Germany — Yesterday and Last 2 Weeks

Now
21 °F

Clear.


Feels Like: 16 °F
Forecast: 9 / 23 °F
Wind: 3 mph from North

Location: Erfurt-Bindersleben

Current Time: Jan 21, 2017 at 7:55:19 am

Latest Report: Jan 21, 2017 at 7:20 am


Visibility: 10 mi

Pressure: 30.45 "Hg

Humidity: 80%

Dew Point: 16 °F

Location of CoburgLocation

Past Weather in Coburg — Graph

°F

Coburg Temperature Yesterday

Maximum temperature yesterday: 30 °F (at 2:20 pm)
Minimum temperature yesterday: 14 °F (at 2:50 am)
Average temperature yesterday: 23 °F

High & Low Weather Summary for the Past Weeks

 TemperatureHumidityPressure
High39 °F (Jan 12, 11:20 am)100% (Jan 8, 5:20 am)30.72 "Hg (Jan 8, 5:20 am)
Low9 °F (Jan 6, 7:20 am)54% (Jan 7, 12:20 pm)29.00 "Hg (Jan 13, 3:50 am)
Average27 °F85%30.16 "Hg
* Reported Jan 6 6:20 am — Jan 21 6:50 am, Coburg, Weather by CustomWeather, © 2017

Note: Actual official high and low records may vary slightly from our data, if they occured in-between our weather recording intervals... More about our weather records

Advertising

Coburg Weather History for the Previous 24 Hours

Scroll right to see more
 ConditionsComfort  
Time TempWeatherWind HumidityBarometerVisibility
6:50 am
Sat, Jan 21
21 °FClear.1 mph80%30.45 "Hg10 mi
6:20 am23 °FClear.2 mph80%30.45 "Hg10 mi
5:50 am23 °FClear.1 mph86%30.45 "Hg10 mi
5:20 am23 °FClear.2 mph86%30.45 "Hg10 mi
4:50 am23 °FClear.2 mph86%30.45 "Hg10 mi
4:20 am25 °FClear.1 mph86%30.45 "Hg10 mi
3:50 am25 °FClear.1 mph80%30.45 "Hg10 mi
3:20 am25 °FPassing clouds.2 mph80%30.48 "HgN/A
2:50 am25 °FPassing clouds.2 mph86%30.48 "HgN/A
2:20 am25 °FPassing clouds.2 mph80%30.48 "HgN/A
1:50 am25 °FPassing clouds.1 mph80%30.48 "HgN/A
1:20 am25 °FPassing clouds.2 mph80%30.48 "HgN/A
12:50 am25 °FPassing clouds.2 mph74%30.48 "HgN/A
12:20 am25 °FPassing clouds.3 mph80%30.48 "HgN/A
11:50 pm
Fri, Jan 20
27 °FPassing clouds.2 mph74%30.48 "HgN/A
11:20 pm27 °FPassing clouds.1 mph80%30.48 "HgN/A
10:50 pm28 °FPassing clouds.1 mph74%30.51 "HgN/A
10:20 pm27 °FPassing clouds.1 mph80%30.51 "HgN/A
9:50 pm27 °FPassing clouds.2 mph80%30.51 "HgN/A
9:20 pm28 °FPassing clouds.2 mph69%30.51 "HgN/A
8:50 pm28 °FPassing clouds.2 mph69%30.51 "HgN/A
8:20 pm28 °FPassing clouds.1 mph69%30.51 "HgN/A
7:50 pm28 °FPassing clouds.2 mph64%30.51 "HgN/A
7:20 pm27 °FPassing clouds.2 mph69%30.51 "HgN/A
6:50 pm27 °FPassing clouds.2 mph74%30.51 "HgN/A
6:20 pm27 °FPassing clouds.2 mph80%30.51 "HgN/A
5:50 pm27 °FPassing clouds.3 mph80%30.51 "HgN/A
5:20 pm27 °FPassing clouds.2 mph80%30.51 "HgN/A
4:50 pm28 °FPassing clouds.5 mph80%30.51 "HgN/A
4:20 pm28 °FPartly sunny.2 mph74%30.51 "HgN/A
3:50 pm30 °FPartly sunny.3 mph75%30.51 "HgN/A
3:20 pm30 °FPartly sunny.1 mph69%30.51 "HgN/A
2:50 pm30 °FPartly sunny.1 mph59%30.51 "HgN/A
2:20 pm30 °FPartly sunny.3 mph64%30.51 "HgN/A
1:50 pm28 °FPartly sunny.6 mph69%30.54 "HgN/A
1:20 pm28 °FPartly sunny.3 mph64%30.54 "HgN/A
12:50 pm28 °FPartly sunny.2 mph64%30.54 "HgN/A
12:20 pm27 °FPartly sunny.2 mph74%30.54 "HgN/A
11:50 am28 °FPartly sunny.1 mph64%30.57 "HgN/A
11:20 am25 °FPartly sunny.3 mph74%30.57 "HgN/A
10:50 am25 °FPartly sunny.5 mph74%30.57 "HgN/A
10:20 am21 °FPartly sunny.6 mph80%30.57 "HgN/A
9:50 am19 °FPartly sunny.7 mph79%30.57 "HgN/A
9:20 am18 °FPartly sunny.10 mph86%30.57 "HgN/A
8:50 am18 °FPartly sunny.9 mph86%30.57 "HgN/A
8:20 am16 °FScattered clouds.8 mph86%30.57 "HgN/A
7:50 am16 °FClear.6 mph79%30.57 "Hg10 mi
7:20 am16 °FClear.1 mph79%30.57 "Hg10 mi
Weather by CustomWeather, © 2017

See weather overviewHow to use our weather pages